This is the latest recevied weather packets stored in our database for station/object W0WC. If no packets are shown the sender has not sent any weather packets the latest 10 day(s).
| Time | Temp. | Humidity | Pressure | Rain* | Wind** | Luminosity | Snow |
|---|---|---|---|---|---|---|---|
| 1787853021 | 31.67° C | 38% | 1019.6 hPa | 0 mm | - | 726 W/m² | - |
| 1787852721 | 31.67° C | 37% | 1019.5 hPa | 0 mm | - | 707 W/m² | - |
| 1787852420 | 31.67° C | 38% | 1019.7 hPa | 0 mm | - | 643 W/m² | - |
| 1787852120 | 31.67° C | 40% | 1019.8 hPa | 0 mm | - | 707 W/m² | - |
| 1787851816 | 31.11° C | 41% | 1019.9 hPa | 0 mm | - | 632 W/m² | - |
| 1787851509 | 31.11° C | 42% | 1020 hPa | 0 mm | - | 669 W/m² | - |
| 1787851204 | 31.11° C | 42% | 1019.8 hPa | 0 mm | - | 669 W/m² | - |
| 1787850900 | 31.11° C | 41% | 1019.9 hPa | 0 mm | - | 706 W/m² | - |
| 1787850596 | 31.11° C | 44% | 1019.9 hPa | 0 mm | - | 700 W/m² | - |
| 1787850295 | 31.11° C | 44% | 1020.1 hPa | 0 mm | - | 692 W/m² | - |
| 1787849990 | 31.11° C | 43% | 1020 hPa | 0 mm | - | 569 W/m² | - |
| 1787849685 | 30.56° C | 44% | 1020.1 hPa | 0 mm | - | 682 W/m² | - |
| 1787849379 | 30.56° C | 43% | 1020 hPa | 0 mm | - | 652 W/m² | - |
| 1787849078 | 30.56° C | 45% | 1020.2 hPa | 0 mm | - | 658 W/m² | - |
| 1787848773 | 31.11° C | 44% | 1020.2 hPa | 0 mm | - | 659 W/m² | - |
| 1787848478 | 30.56° C | 45% | 1020.2 hPa | 0 mm | - | 663 W/m² | - |
| 1787848168 | 30.56° C | 48% | 1020.2 hPa | 0 mm | - | 671 W/m² | - |
| 1787847868 | 30° C | 47% | 1020.1 hPa | 0 mm | - | 674 W/m² | - |
| 1787847563 | 30° C | 47% | 1020.2 hPa | 0 mm | - | 612 W/m² | - |
| 1787847258 | 30° C | 46% | 1020.1 hPa | 0 mm | - | 605 W/m² | - |
| 1787846955 | 30° C | 47% | 1020.1 hPa | 0 mm | - | 589 W/m² | - |
| 1787846654 | 30.56° C | 46% | 1020.1 hPa | 0 mm | - | 576 W/m² | - |
| 1787846354 | 30.56° C | 46% | 1020.2 hPa | 0 mm | - | 508 W/m² | - |
| 1787846046 | 30.56° C | 47% | 1020.1 hPa | 0 mm | - | 574 W/m² | - |
| 1787845741 | 29.44° C | 49% | 1020.1 hPa | 0 mm | - | 567 W/m² | - |
* Rain latest hour (hover to see other rain measurements)
** Current wind speed in m/s (hover to see current wind gust speed)